Tracking 30287 objects as of 18-Apr-2025
HD Live streaming from Space Station
objects crossing your sky now

COSMOS 643

Track COSMOS 643 now!
10-day predictions
COSMOS 643 is classified as:


NORAD ID: 7267
Int'l Code: 1974-024C
Perigee: 1,359.2 km
Apogee: 1,488.0 km
Inclination: 74.0 °
Period: 114.1 minutes
Semi major axis: 7794 km
RCS: 0.6885 m2 (medium)
Launch date: April 23, 1974
Source: Commonwealth of Independent States (former USSR) (CIS)
Launch site: PLESETSK MISSILE AND SPACE COMPLEX (PKMTR)
Your satellite tracking list
Your tracking list is empty




NASA's NSSDC Master Catalog

Two Line Element Set (TLE):
1 07267U 74024C   25107.96882939  .00000000  00000-0  90677-4 0  9991
2 07267  74.0196 334.5494 0082630 336.6941 127.7878 12.61582639348002
Source of the keplerian elements: AFSPC